www.pogodaiklimat.ru

Погода и климат >> Архив погоды >> Мексика >> Ла-Пас


ПОГОДА в Ла-Пасе

  • Прогноз погоды в Ла-Пасе
  • Монитор погоды в Ла-Пасе

АРХИВ ПОГОДЫ в Ла-Пасе

Время (UTC), дата Ветер
(напр.,м/с)
 
Видим.   Явления Облачность Т
(С)
Тd
(С)
f
(%)
Тe
(С)
Тes
(С)
Комфортность P
(гПа)
Po
(гПа)
Тmin
(С)
Tmax
(С)
R
(мм)
R24
(мм)
S
(см)
18 17.06 Ю 2 30 км 3/0
[Ci fib]
+32.9 +15.4 35 +35 +54 опасность
солнечного
удара
1010.7 1008.6 +17.8 +33.6
21 17.06 СЗ 1 30 км 3/0
[Ci fib]
+35.8 +18.4 36 +40 +61 опасность
солнечного
удара
1009.0 1006.9
00 18.06 З 3 30 км 4/0
[Ci fib]
+33.8 +22.3 51 +43 +46 опасность
перегрева
1008.0 1006.0 +17.8 +38.5
03 18.06 Ю 4 2000 м 5/0
[Cs]
+28.9 +16.0 46 +32 +32 душно 1009.8 1007.8
09 18.06 Ю 3 2000 м 3/0
[Cs]
+22.8 +16.2 66 +27 +27 душно 1010.6 1008.6
12 18.06 Ю 4 2000 м ясно +20.5 +16.3 77 +24 +24 комфорт 1011.3 1009.3 +19.8 +38.5
15 18.06 Ю 3 30 км 1/0
[Ci fib]
+25.4 +15.5 54 +28 +33 жарко 1012.1 1010.0
18 18.06 СЗ 1 30 км 3/0
[Ci fib]
+33.6 +14.4 31 +35 +57 опасность
солнечного
удара
1011.7 1009.6 +19.4 +34.6
21 18.06 С 4 30 км 5/0
[Ci fib]
+31.6 +19.8 50 +38 +49 очень
душно
1010.9 1008.9
00 19.06 З 3 30 км 6/0
[Cs]
+34.7 +21.8 47 +43 +46 опасность
перегрева
1010.1 1008.0 +19.4 +35.7
03 19.06 Ю 3 2000 м 4/0
[Ci fib]
+30.8 +14.8 38 +33 +33 душно 1011.6 1009.6
06 19.06 Ю 2 2000 м 1/0
[Ci fib]
+25.0 +16.9 61 +29 +29 душно 1012.6 1010.6 +35.7
09 19.06 Ю 2 2000 м ясно +24.1 +13.2 51 +26 +26 жарко 1011.4 1009.4
12 19.06 Ю 2 2000 м ясно +22.9 +12.5 52 +26 +26 жарко 1011.7 1009.7 +22.4 +35.7
15 19.06 СВ 1 30 км 8/0
[Ci fib]
+27.6 +12.0 38 +29 +35 жарко 1012.8 1010.7
18 19.06 С 1 30 км 8/0
[Ci fib]
+34.4 +9.1 21 +33 +53 опасность
солнечного
удара
1012.8 1010.7 +21.3 +35.0
21 19.06 С 1 30 км 1/0
[Ci fib]
+38.0 +14.7 25 +39 +61 опасность
солнечного
удара
1011.8 1009.8
00 20.06 З 3 30 км 4/0
[Ci fib]
+34.8 +20.0 42 +41 +44 опасность
перегрева
1009.7 1007.7 +21.3 +40.7
03 20.06 Ю 2 2000 м 1/0
[Ci fib]
+32.5 +15.0 35 +35 +35 душно 1010.6 1008.6
06 20.06 Ю 2 2000 м ясно +28.3 +12.3 37 +29 +29 жарко 1011.5 1009.5 +21.3 +40.7
09 20.06 Ю 2 2000 м ясно +24.5 +14.8 55 +27 +27 жарко 1011.1 1009.1
12 20.06 Ю 3 2000 м ясно +21.8 +15.8 69 +25 +25 комфорт 1011.4 1009.4 +21.0 +40.7
15 20.06 Ю 3 30 км ясно +28.8 +10.1 31 +29 +34 жарко 1012.2 1010.1
18 20.06 С 2 30 км ясно +36.4 +4.3 14 +34 +54 опасность
солнечного
удара
1011.5 1009.5 +21.0 +36.5
21 20.06 С 3 30 км ясно +40.0 +3.5 11 +37 +53 опасность
солнечного
удара
1010.2 1008.1
00 21.06 СЗ 4 30 км ясно +39.2 +8.8 16 +37 +40 очень
жарко
1008.6 1006.6 +21.0 +41.8
03 21.06 ЮЗ 1 2000 м ясно +32.6 +15.8 36 +35 +35 душно 1009.3 1007.3
06 21.06 Ю 3 2000 м ясно +26.2 +16.9 57 +30 +30 душно 1010.3 1008.3 +21.0 +41.8
09 21.06 Ю 2 2000 м ясно +24.6 +17.0 63 +28 +28 душно 1009.0 1007.0
12 21.06 Ю 2 2000 м ясно +24.3 +13.9 52 +27 +27 жарко 1009.9 1007.8 +23.2 +41.8
15 21.06 Ю 3 30 км ясно +29.2 +13.6 38 +31 +36 жарко 1011.7 1009.6
18 21.06 СЗ 1 30 км ясно +38.2 +12.0 21 +38 +61 опасность
солнечного
удара
1011.3 1009.2 +23.2 +38.5
21 21.06 С 3 30 км ясно +41.0 +9.4 15 +39 +55 опасность
солнечного
удара
1010.3 1008.2
00 22.06 С 4 30 км ясно +40.9 +9.5 15 +39 +42 очень
жарко
1008.9 1006.9 +23.2 +42.8
03 22.06 Ю 4 2000 м ясно +34.8 +16.8 34 +38 +38 очень
душно
1010.1 1008.1
06 22.06 Ю 3 2000 м ясно +27.8 +16.1 49 +31 +31 душно 1011.2 1009.2 +23.2 +42.8
09 22.06 Ю 4 2000 м ясно +24.4 +15.4 57 +27 +27 жарко 1010.5 1008.9
12 22.06 Ю 3 2000 м ясно +25.6 +11.3 41 +27 +27 жарко 1011.5 1009.5 +23.9 +42.8
15 22.06 Ю 4 30 км ясно +29.7 +7.2 24 +29 +32 жарко 1012.5 1010.4
18 22.06 ЮЗ 3 30 км ясно +37.0 +12.3 23 +37 +53 опасность
солнечного
удара
1012.1 1010.0 +23.9 +37.6
21 22.06 С 4 30 км ясно +38.4 +5.7 14 +36 +49 очень
жарко
1011.2 1009.2
00 23.06 С 2 30 км ясно +39.3 +10.8 18 +38 +43 очень
жарко
1009.8 1007.8 +23.9 +40.2
03 23.06 Ю 5 2000 м ясно +29.2 +15.7 44 +32 +32 душно 1011.6 1009.6
12 23.06 Ю 3 2000 м ясно +20.9 +14.6 67 +24 +24 комфорт 1012.7 1010.6 +20.2 +40.2
15 23.06 Ю 3 30 км ясно +24.6 +13.9 51 +27 +32 жарко 1013.3 1011.2
18 23.06 З 2 30 км ясно +34.0 +8.9 21 +33 +53 опасность
солнечного
удара
1012.0 1009.9 +19.6 +34.6
21 23.06 С 4 30 км ясно +35.9 +9.8 20 +35 +47 очень
жарко
1010.5 1008.4
00 24.06 СЗ 3 30 км ясно +37.3 +9.0 18 +36 +39 очень
жарко
1009.3 1007.3 +19.6 +39.3
03 24.06 Ю 6 2000 м ясно +27.0 +15.9 51 +30 +30 душно 1011.0 1008.9
12 24.06 Ю 3 2000 м ясно +19.9 +15.3 75 +22 +22 комфорт 1010.7 1008.6 +19.7 +39.3
15 24.06 Ю 3 30 км ясно +23.6 +13.2 52 +26 +31 жарко 1011.7 1009.6

 

Местоположение метеостанции Ла-Пас (Мексика): широта 24.17 долгота -110.30 высота над уровнем моря 18 м.

В архиве по умолчанию представлена погода в Ла-Пасе за последнюю неделю. Архивные данные за месяц целиком и за предыдущие месяцы, начиная с января 2011 года, Вы можете получить, выбрав интересующий диапазон дат из раскрывающегося списка и нажав кнопку "Ввод!".


*Определитесь, кто Вы:
робот инопланетянин человек

Внимание! Время в таблицах - всемирное. Для получения местного времени необходимо прибавить поправку, которая равна -6 ч.

Смотрите также архив погоды в соседних городах и на ближайших метеорологических станциях:

Погода в Сьюдад-Конститусьоне (Мексика) (166 км)
Погода в Лорето (Мексика) (229 км)
Погода в Кульякане (Мексика) (302 км)
Погода в Чойсе (Мексика) (354 км)
Погода в Сьюдад-Обрегоне (Мексика) (361 км)
Погода в Санта-Розалии (Мексика) (397 км)
Погода в Мазатлане (Мексика) (412 км)
Погода в Гуаймасе (Мексика) (421 км)
Погода в Эмпальме (Мексика) (422 км)
Погода в Тепеуанесе (Мексика) (481 км)

Пояснения к столбцам:

Ветер - указаны скорость ветра в м/с - средняя за 10 мин, порывы в срок и между сроками (в фигурных скобках) и направление, откуда дует ветер: С - северный, СВ - северо-восточный, В - восточный, ЮВ - юго-восточный, Ю - южный, ЮЗ - юго-западный, З - западный, СЗ - северо-западный.
Видимость - горизонтальная дальность видимости в метрах или километрах. При видимости от 1 до 10 км при отсутствии осадков обычно наблюдается дымка, при ухудшении видимости до 1 км и менее - туман. В сухую погоду видимость может ухудшаться дымом, пылью или мглою.
Явления - указаны атмосферные явления, наблюдавшиеся в срок или в последний час перед сроком; фигурными скобками обозначены явления, наблюдавшиеся между сроками (за 1-3 часа до срока); квадратными скобками обозначены град или гололедные отложения с указанием их диаметра в мм.
Облачность - указаны через наклонную черту общая и нижняя облачность в баллах и высота нижней границы облаков в метрах; квадратными скобками обозначены формы облаков: Ci - перистые, Cs - перисто-слоистые, Cc - перисто-кучевые, Ac - высококучевые, As - высокослоистые, Sc - слоисто-кучевые, Ns - слоисто-дождевые, Cu - кучевые, Cb - кучево-дождевые. Подробнее классификацию облаков см. в Атласе облаков (PDF).
T - Температура воздуха - температура, измеренная на высоте 2 м над землей.
Td - Температура точки росы - температура, при понижении до которой содержащийся в воздухе водяной пар достигнет насыщения.
f - Относительная влажность воздуха - влажноcть воздуха, измеренная на высоте 2 м над землей.
Te - Эффективная температура - температура, которую ощущает одетый по сезону человек в тени. Характеристика душности погоды. При расчете учитывается влияние влажности воздуха и скорости ветра на теплоощущения человека.
Tes - Эффективная температура на солнце - температура, которую ощущает человек, с поправкой на солнечный нагрев. Характеристика знойности погоды. Зависит от высоты солнца над горизонтом, облачности и скорости ветра. Ночью, в пасмурную погоду, а также при ветре 12 м/с и более поправка равна нулю.
P - Атмосферное давление - приведенное к уровню моря атмосферное давление.
Po - Атмосферное давление - измеренное на уровне метеостанции атмосферное давление.
Tmin - Минимальная температура - минимум температуры воздуха на высоте 2 м над землей.
Tmax - Максимальная температура - максимум температуры воздуха на высоте 2 м над землей.
R - Количество осадков - Количество выпавших осадков за период времени, мм. При наведении курсора мыши на число - период времени, за который выпало указанное количество осадков.
R24 - Количество осадков - Количество выпавших осадков за 24 часа, мм.
S - Снежный покров - Высота снежного покрова, см. При наведении курсора мыши на число - состояние снежного покрова и степень покрытия местности в баллах.